Wetbulb
69.69 69.46 69.63 69.56 70.13 70.22 70.19 70.38 70.75 70.40 70.91 71.11 70.89 71.50 71.68 71.87 71.61 71.57 70.31 70.84 69.89 69.80 70.25 69.87 69.02 70.11 69.48 69.82 69.36 69.32 68.43 66.56 64.08 66.62 67.16 69.13 68.96 70.03 70.94 71.41 72.40 72.42 72.42
70.52 69.95 69.99 69.79 70.37 70.36 70.81 70.72 71.14 71.47 71.42 71.68 71.80 71.50 71.40 71.41 71.54 70.89 70.60 71.32 70.30 69.28 69.58 68.87 69.81 70.94 69.28 69.72 69.34 68.98 68.64 68.54 67.14 64.85 66.74 68.35 68.63 70.06 70.33 70.91 72.10 73.43 72.40
70.52 70.08 69.61 69.78 69.87 69.52 70.59 71.27 71.30 71.11 71.41 71.12 71.67 71.40 70.86 71.41 71.84 71.29 70.85 70.54 71.23 71.12 70.07 70.20 70.08 69.86 68.85 69.26 68.98 69.04 69.25 69.77 68.31 67.35 67.17 68.20 68.44 69.37 69.64 70.01 70.92 70.80 73.01
70.71 70.06 69.81 69.77 70.24 70.39 70.32 69.97 70.60 70.95 71.00 71.10 71.18 70.62 71.48 71.21 71.72 71.56 71.75 70.88 70.71 71.39 71.34 71.65 72.17 70.72 69.90 69.41 69.25 68.70 69.06 67.86 67.68 66.47 65.73 66.29 66.94 68.31 69.06 68.36 69.44 69.75 70.37
70.28 70.04 69.90 70.39 70.49 70.27 70.06 70.02 70.58 70.88 70.95 70.99 71.48 70.79 71.50 71.32 69.38 68.93 69.43 69.64 70.14 70.39 71.21 71.21 71.29 71.20 70.07 69.71 70.34 69.27 68.98 67.66 67.41 66.07 65.64 66.13 66.60 66.98 67.28 68.76 67.90 68.67 69.24
68.61 68.56 68.45 67.98 68.02 68.25 68.63 68.47 68.81 69.08 70.55 70.08 69.99 69.88 68.07 68.45 64.01 64.97 66.53 67.05 68.38 69.82 69.98 70.08 68.62 69.01 68.39 67.30 67.50 67.62 69.21 67.97 66.47 65.88 65.72 65.36 65.98 67.05 68.33 68.09 67.14 66.30 66.25
68.42 68.36 68.29 67.88 66.83 67.57 69.08 69.52 68.74 68.43 68.27 67.66 66.51 66.20 65.18 64.66 61.69 62.52 63.22 66.27 68.63 69.53 69.33 70.50 69.94 68.10 66.45 68.04 66.95 65.78 65.33 65.33 66.35 67.46 66.72 66.53 66.42 67.77 67.10 66.18 66.11 65.88 65.20
67.66 68.09 68.47 68.16 67.36 67.43 68.45 68.72 68.81 68.56 68.56 66.73 64.07 61.82 60.62 60.87 56.57 58.14 60.67 63.82 68.04 69.55 69.62 68.79 66.40 62.54 61.28 65.07 68.54 65.69 62.82 62.02 62.03 65.49 64.05 62.39 62.76 63.90 64.64 66.88 66.89 66.82 65.19
66.91 67.43 67.80 67.66 67.05 67.30 67.90 68.04 67.66 67.38 67.09 65.42 62.79 59.58 58.01 55.68 54.43 56.15 60.50 64.80 67.25 65.17 64.21 63.09 61.67 61.13 59.54 62.04 66.51 65.24 57.30 58.71 60.42 61.08 60.72 60.56 61.16 61.71 63.04 64.36 63.23 61.85 60.73
66.40 66.78 67.73 67.16 66.89 67.12 66.80 66.82 66.55 66.36 64.35 60.14 56.38 54.70 54.26 51.59 52.93 56.03 64.48 64.87 61.24 58.79 58.36 57.37 57.71 56.07 54.54 58.43 56.65 55.43 55.70 56.05 59.31 58.38 57.45 58.27 58.35 58.67 59.56 57.68 58.23 56.54 58.43
67.09 66.82 66.98 66.62 66.08 66.14 66.21 65.21 63.56 60.83 58.72 55.97 54.29 53.84 53.12 51.92 51.54 53.18 58.62 61.84 60.19 60.11 59.32 56.05 54.52 54.54 53.00 54.11 57.19 57.30 55.79 57.32 58.00 55.84 55.24 55.06 54.68 54.38 54.80 54.93 54.88 55.91 54.32
65.64 65.84 65.14 65.10 66.68 65.94 63.88 62.89 61.05 58.50 56.47 55.10 53.17 52.61 52.12 50.40 51.48 51.75 51.92 54.66 58.69 57.70 55.45 55.26 55.46 52.93 50.95 52.31 54.78 53.91 54.88 55.67 54.28 52.77 51.55 50.72 50.46 50.69 51.22 51.93 52.21 53.98 52.30
59.23 57.55 56.55 55.49 55.94 59.88 62.82 61.75 60.53 58.55 54.86 52.45 52.91 54.02 53.41 52.37 50.69 49.65 50.02 51.10 52.21 53.93 55.51 55.20 53.31 51.22 51.11 51.83 52.75 52.85 53.26 53.96 51.17 49.58 48.72 47.94 48.15 48.49 48.09 48.16 48.20 51.11 48.19
56.41 55.39 54.55 52.02 50.50 49.84 48.44 49.59 53.44 57.15 56.54 54.90 54.22 53.20 50.47 47.21 44.78 43.90 45.21 46.44 50.80 53.04 55.22 54.01 53.06 52.23 51.75 51.48 50.68 50.36 50.67 49.18 48.42 47.95 46.85 46.73 46.44 46.24 44.94 45.41 43.90 44.51 43.36
57.09 54.24 52.29 51.19 51.65 47.53 44.86 44.62 45.32 43.00 43.48 48.83 55.89 55.17 48.08 45.08 43.27 42.40 42.83 44.56 45.79 45.56 50.35 50.50 49.71 49.25 47.95 47.43 47.56 47.71 47.57 47.39 46.52 46.11 45.32 44.10 43.79 43.08 42.83 42.89 42.07 40.39 38.98
56.88 55.32 52.70 51.00 48.47 47.59 46.44 44.84 43.89 44.21 44.74 43.23 41.80 48.18 43.27 43.31 41.33 40.41 39.76 40.09 42.73 43.45 48.62 47.98 46.87 46.44 45.42 44.72 44.80 44.56 45.01 45.50 44.55 43.67 42.72 42.21 41.54 41.36 40.06 40.29 40.06 39.35 38.52
52.88 52.59 52.40 50.26 49.76 47.82 46.80 46.62 45.15 44.07 42.81 41.73 42.22 43.11 41.46 41.34 40.12 39.23 39.21 41.55 42.34 46.71 46.12 45.52 44.87 44.43 43.46 43.35 43.29 43.13 42.37 42.61 43.32 42.45 41.64 41.26 41.31 41.33 40.39 39.95 39.40 39.18 39.23
45.16 49.83 50.00 52.00 50.96 48.97 48.41 46.79 42.42 41.20 42.95 43.41 41.27 40.76 39.90 39.39 39.24 38.76 39.46 43.41 46.62 46.38 45.58 43.81 42.34 42.09 41.72 41.26 41.01 40.91 41.00 40.93 40.12 39.70 39.51 39.61 39.34 39.20 38.61 38.07 38.69 38.02 38.18
46.03 44.91 44.87 45.83 47.62 50.66 48.18 45.40 42.16 41.10 40.47 38.93 38.29 40.97 40.05 40.14 40.36 40.07 41.86 45.74 45.43 44.43 44.00 42.44 41.41 40.76 40.59 40.48 40.24 39.75 39.32 38.74 37.53 36.71 36.24 36.20 36.32 36.64 36.47 37.12 36.66 38.19 37.93
43.72 48.92 45.80 43.83 42.98 44.68 47.06 46.84 43.33 42.31 40.27 38.12 37.92 38.97 40.74 42.92 43.15 43.78 43.98 44.10 43.33 42.25 42.71 42.58 41.93 41.71 41.38 40.08 39.08 38.60 37.48 36.82 35.65 35.21 34.78 34.50 34.61 34.76 34.75 34.70 34.67 34.84 37.41
44.94 43.36 47.11 41.31 41.94 41.07 42.20 42.68 44.80 44.46 43.38 40.14 39.45 40.48 41.62 42.99 42.24 42.46 42.44 41.89 43.02 43.20 42.13 41.84 41.43 40.89 40.89 40.08 38.91 38.53 37.81 36.07 34.46 34.31 34.01 33.44 33.68 33.26 33.77 33.49 34.10 36.75 37.31
44.80 44.04 42.27 40.98 40.61 41.18 41.91 41.81 41.73 44.02 43.56 41.33 40.40 40.97 41.83 43.27 42.65 42.33 42.16 42.48 42.25 42.17 42.16 42.09 41.20 40.15 39.88 39.91 39.69 38.20 36.82 36.00 35.60 35.20 34.57 33.77 33.42 33.91 34.41 34.70 35.61 35.66 36.29
45.47 44.78 43.59 41.58 40.70 42.30 41.10 40.52 39.83 41.75 43.02 42.67 40.66 40.03 39.94 42.06 42.10 41.94 42.33 42.09 42.61 42.39 41.91 42.01 40.98 39.73 39.20 39.30 39.40 38.48 36.39 35.47 35.40 35.60 35.00 34.61 34.55 35.19 35.66 34.80 34.91 35.13 35.88
46.16 45.37 44.34 43.26 41.40 39.52 39.41 39.86 39.79 40.72 41.35 41.40 39.89 39.04 39.42 41.84 42.18 42.01 41.67 41.14 41.37 41.74 41.62 41.27 40.76 39.24 38.81 38.65 37.60 37.17 36.79 36.31 36.08 35.58 35.66 34.80 35.82 36.42 35.83 35.21 35.48 35.96 35.99
47.67 47.03 44.85 44.09 42.46 40.57 40.23 40.23 40.09 40.38 41.58 41.13 39.74 38.50 39.80 41.46 41.33 41.72 41.29 40.76 40.47 40.06 39.43 39.22 38.57 38.22 37.74 37.19 36.14 35.41 34.74 34.80 35.33 35.19 35.14 35.07 35.42 35.44 34.62 35.36 35.68 36.24 36.90
51.16 49.59 49.24 48.02 45.27 42.61 41.14 40.18 40.30 39.84 40.30 41.85 40.70 38.86 40.50 42.07 41.70 41.19 41.06 40.43 39.48 38.86 38.58 38.31 38.25 38.02 37.70 36.80 36.26 35.11 31.55 32.12 34.51 33.30 34.53 34.10 34.15 34.57 35.54 36.33 36.93 37.27 38.06
MSLP
1017.58 1017.92 1018.33 1018.50 1018.57 1018.91 1019.18 1019.31 1019.41 1019.46 1019.67 1019.77 1019.87 1019.98 1020.27 1020.47 1020.47 1020.77 1020.93 1021.13 1021.39 1021.52 1021.66 1021.67 1021.73 1021.74 1021.65 1021.53 1021.39 1021.53 1021.71 1021.77 1022.04 1021.36 1020.89 1020.22 1019.96 1019.71 1019.29 1018.94 1018.68 1018.41 1018.17
1016.97 1017.61 1018.03 1018.45 1018.49 1018.55 1018.79 1018.96 1019.11 1019.21 1019.13 1019.24 1019.50 1019.79 1020.01 1020.25 1020.45 1020.67 1020.79 1020.85 1021.10 1021.20 1021.19 1021.44 1021.50 1021.49 1021.51 1021.45 1021.43 1021.54 1021.55 1021.65 1022.03 1021.69 1021.15 1020.73 1020.27 1019.87 1019.51 1019.29 1019.08 1018.68 1018.52
1016.65 1017.26 1017.82 1018.14 1018.45 1018.54 1018.57 1018.61 1018.83 1019.00 1019.08 1019.24 1019.41 1019.57 1019.77 1020.07 1020.27 1020.44 1020.66 1020.82 1020.81 1020.77 1020.85 1021.02 1020.97 1021.07 1021.15 1021.13 1021.22 1021.44 1021.45 1021.44 1021.48 1021.55 1021.39 1020.92 1020.47 1020.12 1019.82 1019.60 1019.45 1018.97 1018.56
1016.25 1017.07 1017.69 1017.95 1018.25 1018.37 1018.38 1018.61 1018.89 1019.02 1019.13 1019.19 1019.34 1019.49 1019.66 1019.86 1020.14 1020.34 1020.51 1020.58 1020.56 1020.54 1020.61 1020.80 1020.81 1020.63 1020.61 1020.67 1020.89 1021.04 1021.15 1021.33 1021.37 1021.40 1021.34 1021.17 1020.97 1020.46 1020.25 1020.18 1019.71 1019.33 1018.77
1016.00 1016.61 1017.32 1017.68 1018.07 1018.43 1018.55 1018.57 1018.59 1018.74 1018.92 1019.15 1019.33 1019.53 1019.75 1019.87 1019.97 1020.16 1020.31 1020.45 1020.57 1020.53 1020.46 1020.42 1020.31 1020.11 1020.05 1020.50 1020.59 1020.70 1020.92 1021.24 1021.31 1021.29 1021.33 1021.27 1021.06 1020.78 1020.64 1020.45 1020.25 1019.79 1019.11
1015.93 1016.73 1017.09 1017.65 1018.17 1018.41 1018.51 1018.58 1018.59 1018.59 1018.69 1019.01 1019.28 1019.53 1019.81 1020.22 1020.19 1020.19 1020.43 1020.42 1020.51 1020.53 1020.52 1020.43 1020.38 1020.31 1020.38 1020.15 1020.17 1020.28 1020.54 1020.87 1021.07 1021.21 1021.34 1021.34 1021.09 1020.97 1020.82 1020.67 1020.49 1020.31 1019.99
1015.68 1016.66 1017.16 1017.65 1018.07 1018.42 1018.57 1018.50 1018.61 1018.75 1018.94 1019.07 1019.35 1019.90 1020.19 1020.44 1020.55 1020.63 1020.60 1020.50 1020.16 1020.18 1020.22 1020.31 1020.50 1020.54 1020.36 1020.50 1020.46 1020.44 1020.53 1020.51 1020.70 1020.85 1020.98 1020.98 1020.86 1020.78 1020.91 1020.74 1020.64 1020.41 1020.24
1015.89 1016.69 1017.05 1017.37 1017.76 1018.32 1018.52 1018.57 1018.65 1018.69 1018.87 1019.22 1019.41 1019.89 1020.47 1020.76 1020.74 1020.39 1020.23 1020.42 1020.35 1020.09 1020.01 1020.04 1020.21 1020.49 1020.66 1020.65 1020.69 1020.96 1021.01 1020.95 1020.97 1020.88 1020.99 1021.03 1020.91 1020.65 1020.76 1020.66 1020.65 1020.51 1020.35
1016.19 1016.64 1017.04 1017.30 1017.42 1018.10 1018.43 1018.55 1018.63 1018.76 1019.19 1019.54 1019.77 1019.87 1020.46 1021.25 1020.58 1020.38 1020.13 1020.31 1020.63 1020.77 1020.68 1020.69 1020.72 1020.96 1020.81 1020.61 1020.91 1021.28 1021.55 1021.26 1020.73 1020.77 1021.09 1021.22 1021.12 1020.93 1020.76 1020.69 1021.05 1021.05 1021.09
1016.86 1017.12 1016.63 1017.02 1017.60 1017.93 1018.20 1018.33 1018.62 1018.86 1019.22 1019.78 1020.36 1020.58 1021.03 1021.11 1020.81 1020.18 1019.89 1020.33 1021.06 1021.33 1021.53 1021.57 1021.49 1021.44 1021.24 1020.85 1021.07 1021.46 1021.84 1022.02 1021.53 1021.15 1021.22 1021.41 1021.51 1021.62 1021.69 1021.87 1021.95 1021.92 1021.94
1016.36 1016.88 1017.21 1017.48 1017.77 1018.06 1018.40 1018.66 1019.07 1019.47 1019.85 1020.28 1020.65 1021.21 1021.55 1021.43 1021.18 1020.36 1020.48 1020.71 1021.23 1021.55 1021.71 1021.92 1022.06 1021.77 1021.42 1021.33 1021.33 1021.69 1022.01 1022.17 1022.17 1022.18 1022.37 1022.41 1022.54 1022.62 1022.60 1022.62 1022.69 1022.55 1022.63
1016.07 1016.42 1017.44 1018.01 1018.20 1018.59 1018.75 1019.01 1019.63 1020.01 1020.44 1020.78 1021.08 1021.45 1021.65 1021.75 1021.65 1021.32 1021.09 1021.20 1021.49 1021.74 1022.11 1022.30 1022.44 1022.35 1022.18 1022.11 1022.16 1022.31 1022.33 1022.41 1022.77 1023.01 1023.41 1023.82 1023.81 1023.92 1023.91 1023.65 1023.53 1023.50 1023.71
1017.55 1018.09 1018.60 1018.42 1018.79 1019.00 1019.52 1019.63 1020.11 1020.61 1021.04 1021.53 1021.71 1021.81 1022.07 1022.21 1022.17 1022.08 1022.05 1022.01 1022.26 1022.31 1022.46 1022.47 1022.91 1022.94 1022.77 1022.63 1022.68 1022.68 1022.66 1023.05 1023.41 1023.78 1024.37 1024.74 1024.97 1024.99 1024.65 1024.41 1024.09 1024.25 1024.28
1018.22 1018.84 1019.13 1019.34 1019.72 1019.94 1020.28 1020.33 1020.76 1021.29 1021.68 1021.91 1022.02 1021.99 1022.07 1022.33 1022.58 1022.46 1022.57 1022.60 1022.89 1022.73 1022.25 1022.70 1023.53 1023.52 1023.51 1023.67 1023.89 1023.96 1023.77 1023.80 1023.97 1024.41 1024.84 1025.15 1025.08 1025.05 1025.46 1025.51 1025.48 1025.00 1024.91
1019.21 1019.87 1020.07 1020.21 1020.74 1021.19 1021.73 1022.00 1022.07 1022.39 1022.56 1022.57 1022.39 1022.37 1022.61 1022.65 1022.97 1023.10 1022.97 1022.89 1023.19 1023.24 1023.22 1023.51 1023.25 1023.71 1024.51 1024.68 1025.22 1025.31 1025.07 1024.96 1025.14 1025.44 1025.66 1025.96 1026.04 1025.73 1026.01 1026.25 1026.04 1025.86 1026.06
1019.80 1020.27 1020.70 1020.86 1021.22 1021.84 1022.29 1022.82 1023.07 1022.94 1022.99 1022.97 1022.65 1022.49 1022.89 1022.90 1023.03 1023.05 1023.20 1023.25 1023.44 1023.68 1023.37 1023.82 1024.21 1024.59 1024.88 1025.41 1025.47 1026.01 1026.02 1025.91 1026.09 1026.37 1026.53 1026.38 1026.67 1026.82 1026.59 1026.60 1026.63 1026.64 1026.49
1020.29 1020.64 1021.04 1021.43 1021.88 1022.21 1022.61 1022.88 1023.10 1023.19 1023.19 1023.46 1023.47 1023.27 1022.98 1023.19 1023.52 1022.99 1023.03 1023.06 1023.13 1023.00 1023.86 1024.61 1025.09 1025.11 1025.49 1025.84 1026.24 1026.65 1026.85 1026.81 1026.69 1027.03 1027.27 1027.17 1027.09 1027.33 1027.18 1027.29 1027.01 1027.06 1027.12
1020.64 1020.83 1021.05 1021.53 1021.67 1022.13 1022.79 1023.07 1023.06 1023.34 1023.37 1022.93 1023.32 1023.54 1023.61 1023.67 1024.04 1023.38 1023.69 1023.10 1023.19 1023.58 1023.81 1024.59 1025.60 1026.06 1026.25 1026.57 1026.72 1026.96 1027.22 1027.51 1027.56 1027.70 1027.90 1027.95 1027.88 1027.92 1028.13 1027.81 1028.03 1027.79 1027.55
1020.63 1020.86 1021.00 1021.03 1021.18 1021.51 1022.07 1022.50 1022.85 1023.02 1023.35 1023.45 1023.53 1023.67 1023.53 1023.58 1023.41 1023.43 1023.39 1024.01 1024.37 1024.15 1024.77 1024.57 1025.72 1026.53 1026.45 1026.71 1026.83 1027.40 1027.77 1027.96 1028.39 1028.56 1028.41 1028.48 1028.39 1028.47 1028.70 1028.53 1028.50 1028.25 1027.87
1021.14 1020.99 1021.05 1021.32 1021.63 1021.81 1021.91 1022.21 1022.61 1022.92 1023.20 1023.33 1023.53 1023.70 1023.55 1023.83 1023.97 1024.01 1024.07 1024.47 1024.59 1025.51 1025.42 1025.48 1026.10 1026.72 1026.89 1026.94 1027.23 1027.80 1028.40 1028.36 1028.34 1028.60 1029.05 1029.15 1029.02 1028.93 1028.80 1028.74 1028.72 1028.59 1028.25
1021.50 1021.60 1021.45 1021.64 1021.80 1021.91 1022.09 1022.22 1022.35 1022.61 1022.71 1022.94 1023.34 1023.43 1023.39 1023.72 1024.19 1024.36 1024.57 1024.85 1025.10 1025.37 1025.39 1025.83 1026.52 1026.77 1026.59 1026.91 1027.32 1027.71 1028.27 1028.87 1028.69 1028.77 1029.10 1029.69 1029.46 1029.31 1029.25 1028.96 1028.78 1028.58 1028.43
1021.14 1021.29 1021.27 1021.45 1021.53 1021.55 1021.70 1022.02 1022.26 1022.43 1022.62 1022.77 1023.07 1023.33 1023.42 1023.79 1024.14 1024.50 1024.86 1025.21 1025.36 1025.49 1025.45 1026.07 1026.70 1026.93 1026.98 1027.03 1027.46 1027.68 1028.19 1028.62 1028.96 1029.17 1029.48 1029.60 1029.59 1029.31 1029.17 1029.25 1029.07 1028.85 1028.82
1021.05 1021.20 1021.26 1021.26 1021.27 1021.29 1021.43 1021.61 1022.00 1022.27 1022.43 1022.55 1022.85 1023.24 1023.59 1023.87 1024.19 1024.48 1024.75 1025.23 1025.36 1025.57 1026.03 1026.31 1026.75 1026.94 1027.25 1027.35 1027.54 1027.55 1028.03 1028.63 1028.95 1029.15 1029.29 1029.37 1029.30 1029.19 1029.19 1029.18 1029.01 1028.88 1028.75
1020.66 1020.85 1021.00 1021.04 1021.15 1021.20 1021.32 1021.47 1021.63 1021.72 1021.95 1022.20 1022.47 1022.69 1022.99 1023.35 1023.71 1024.20 1024.65 1024.97 1025.41 1025.78 1026.03 1026.28 1026.53 1026.88 1027.33 1027.58 1027.65 1027.69 1028.09 1028.33 1028.67 1028.86 1028.86 1029.15 1029.11 1029.13 1029.14 1029.06 1028.98 1028.84 1028.52
1020.10 1020.26 1020.56 1020.67 1020.72 1021.09 1021.26 1021.29 1021.38 1021.51 1021.60 1021.82 1022.02 1022.35 1022.73 1023.05 1023.49 1024.04 1024.54 1024.88 1025.29 1025.66 1025.97 1026.24 1026.52 1026.79 1027.02 1027.25 1027.54 1027.73 1027.99 1028.12 1028.43 1028.69 1029.08 1029.34 1029.27 1029.14 1029.06 1028.94 1028.78 1028.48 1028.17
1019.79 1019.77 1019.86 1020.09 1020.25 1020.64 1020.96 1020.93 1021.04 1021.29 1021.29 1021.26 1021.40 1021.80 1022.26 1022.72 1023.12 1023.64 1024.21 1024.65 1025.03 1025.32 1025.64 1025.89 1026.09 1026.39 1026.73 1027.05 1027.24 1027.57 1028.00 1028.17 1028.36 1028.75 1029.11 1029.24 1029.16 1029.02 1028.82 1028.64 1028.42 1028.19 1027.93
Wind_Speed
8 7 6 6 6 6 6 6 7 4 6 6 7 7 6 6 5 4 5 5 4 3 3 4 5 4 3 3 2 1 2 3 3 4 2 2 2 4 4 4 5 5 5
9 6 6 5 5 6 6 6 6 6 5 6 6 6 6 6 5 6 6 4 5 5 5 4 5 3 4 3 2 3 2 1 3 3 2 2 2 3 4 6 6 5 5
8 7 6 6 6 6 6 5 6 6 6 4 5 7 7 6 6 6 5 6 6 6 5 4 6 4 4 3 4 4 3 2 2 2 3 1 2 2 3 2 4 4 4
10 8 8 6 6 6 5 3 4 5 5 6 6 5 6 6 6 5 5 5 5 5 5 5 5 6 6 4 3 4 2 2 1 1 2 2 1 3 2 2 5 2 4
9 9 7 5 5 4 5 3 3 6 5 3 3 4 4 4 2 3 4 4 4 6 5 4 2 1 4 5 3 4 4 3 2 2 2 1 2 2 2 2 2 4 3
7 5 5 6 4 5 5 4 3 3 5 4 3 3 3 1 4 2 4 4 4 5 5 5 3 3 4 2 1 6 5 3 3 1 1 1 2 2 2 2 2 3 4
7 5 5 5 6 5 4 5 5 4 3 5 6 4 3 3 6 5 8 4 4 4 5 5 4 1 2 3 5 7 8 7 0 1 2 2 1 1 3 3 2 1 1
6 5 4 6 6 5 4 4 4 4 5 4 5 6 4 2 8 8 8 6 4 4 3 5 5 2 1 2 4 5 5 5 5 3 3 4 4 4 2 2 2 4 1
5 6 5 6 6 5 5 6 3 4 3 1 4 6 5 2 9 5 4 5 2 4 4 4 3 1 5 2 5 5 3 4 3 8 10 10 13 13 9 2 4 3 2
2 3 5 4 4 5 5 3 2 3 5 5 6 6 6 4 11 8 3 5 5 5 4 4 7 3 5 7 6 5 5 3 4 6 5 9 11 12 16 9 4 3 2
5 4 3 4 4 3 3 3 4 6 7 7 7 5 5 6 9 11 8 7 5 4 3 3 4 6 2 3 3 3 3 2 6 6 6 6 7 8 7 7 7 4 3
5 7 5 4 3 3 5 5 5 6 6 5 6 4 4 5 8 12 15 11 7 5 4 3 5 7 11 10 8 9 9 7 4 5 6 6 6 6 6 6 7 8 6
10 7 6 6 5 4 4 6 5 5 4 4 3 4 3 2 3 10 12 13 11 4 1 3 4 2 7 12 13 12 9 5 5 7 6 4 4 4 6 4 5 5 6
9 7 5 7 6 6 5 5 4 2 3 3 3 3 2 2 2 2 3 4 6 4 8 7 8 9 12 9 8 8 6 5 5 5 4 3 2 5 6 4 4 6 4
7 5 5 6 5 6 6 4 4 4 2 1 0 2 2 2 2 3 3 2 3 3 3 3 4 4 5 6 5 6 5 6 7 4 5 4 5 5 5 4 4 3 4
5 4 3 4 4 3 4 4 8 8 9 5 5 3 2 5 7 6 4 1 3 6 4 5 5 5 5 4 5 5 5 7 5 5 5 4 4 4 4 4 4 4 4
5 4 4 4 2 2 2 2 2 3 5 8 9 5 5 1 6 6 5 7 6 7 5 5 5 5 5 4 4 4 4 3 4 5 5 5 5 4 5 5 4 4 5
5 5 4 3 4 4 4 3 3 3 1 1 2 2 1 2 5 3 5 4 6 6 7 7 5 4 4 4 4 4 4 4 5 5 5 4 4 4 4 3 3 4 3
3 2 1 2 3 5 4 4 4 3 2 1 1 2 1 2 2 4 2 2 4 5 4 7 5 4 5 5 5 5 5 4 4 3 4 4 4 3 3 3 4 8 7
3 5 4 1 1 2 3 4 4 4 3 3 2 3 1 2 3 3 4 4 5 4 4 6 5 4 5 5 5 5 4 4 4 4 4 4 3 3 4 4 3 3 5
3 2 3 3 2 1 2 2 3 4 4 4 4 4 4 4 5 4 4 4 5 5 5 5 4 3 5 5 5 5 5 3 4 4 4 3 3 3 3 3 3 4 4
2 2 2 2 2 2 3 3 3 4 5 5 3 2 7 3 4 4 4 4 4 4 4 5 4 4 4 5 5 5 5 4 3 3 2 2 1 2 2 3 4 4 4
4 4 3 3 3 2 2 3 2 3 5 5 5 5 4 4 5 5 5 5 4 5 4 5 5 4 3 4 4 5 5 4 3 3 3 2 2 2 3 2 3 3 3
5 5 4 3 3 3 3 4 4 5 5 5 5 5 5 5 6 6 5 5 5 5 5 4 4 6 5 4 3 4 4 4 3 3 3 0 1 1 1 2 3 4 5
5 5 5 5 4 4 4 5 4 5 5 5 5 5 5 5 6 6 6 5 5 5 5 5 5 7 8 8 7 7 6 7 5 4 1 1 2 2 2 2 3 4 6
4 5 5 4 3 3 5 5 5 5 6 5 5 5 6 7 6 7 7 7 6 5 6 5 6 9 9 7 8 9 6 7 6 5 3 2 1 1 2 3 5 4 6
Wind_Direction
181 179 193 201 194 188 191 201 210 212 229 217 199 185 197 211 211 202 201 196 214 202 214 215 215 205 231 245 234 162 218 153 177 294 253 288 296 352 339 8 357 1 353
179 170 186 203 198 184 194 200 196 203 213 207 185 183 196 210 210 211 206 209 227 231 225 211 236 217 223 215 233 233 254 218 207 254 294 316 316 336 330 5 352 358 344
159 166 188 199 198 211 214 190 197 209 206 205 202 186 197 203 203 223 224 226 221 236 233 237 251 221 236 204 193 199 212 210 194 161 286 287 285 337 331 338 324 324 323
158 171 197 194 200 210 216 198 205 225 218 205 204 208 197 199 206 206 217 231 246 243 236 244 269 238 242 254 235 223 223 221 202 223 260 274 272 304 328 322 341 322 322
163 171 194 196 189 155 144 131 195 187 208 241 225 185 204 192 172 191 197 223 247 268 271 248 262 189 218 207 198 214 192 208 234 251 268 291 294 326 336 314 303 321 320
128 168 158 145 171 184 169 175 100 99 147 125 116 161 169 190 149 143 239 234 254 250 241 222 153 86 42 61 330 240 207 199 228 200 239 258 271 268 323 329 332 1 342
119 134 175 165 178 215 231 179 149 121 101 122 100 94 78 49 339 276 279 269 223 234 236 190 201 143 27 306 56 66 66 61 356 198 226 225 277 126 335 328 332 275 264
127 192 209 185 171 183 199 202 178 163 151 138 126 115 80 313 328 302 269 261 260 240 196 160 154 145 228 219 130 82 60 34 12 1 357 310 280 301 252 251 296 300 6
173 185 181 172 171 186 181 195 161 130 105 85 111 110 93 294 347 316 200 200 119 55 49 53 104 154 344 77 138 132 83 23 29 71 68 53 60 51 28 65 16 24 346
125 205 137 153 159 176 192 182 102 91 120 114 80 69 76 47 10 357 69 107 107 95 60 37 30 54 53 66 100 119 95 6 31 54 39 41 41 37 37 40 9 49 13
119 110 60 80 104 111 98 93 103 105 108 102 108 88 81 34 21 37 56 102 114 112 106 70 10 359 70 109 119 116 105 118 68 66 53 45 39 37 34 26 26 42 92
97 106 94 87 101 120 93 84 88 99 106 102 101 83 56 46 36 49 56 60 88 101 76 40 39 42 68 66 65 72 76 81 75 74 64 47 45 31 12 24 27 60 66
87 80 77 68 58 65 114 112 105 100 116 122 140 142 135 102 57 54 63 74 54 52 76 52 130 89 69 67 63 67 71 77 79 70 62 50 40 17 17 18 23 51 58
86 93 85 76 75 61 54 42 58 99 140 154 174 165 129 105 84 76 87 103 114 129 106 104 82 74 68 54 41 36 50 56 77 88 88 68 38 47 39 12 13 356 43
82 80 80 85 81 85 62 42 73 66 356 46 225 148 147 160 142 61 24 104 136 112 95 92 104 84 66 61 52 42 47 53 64 54 66 52 48 60 49 8 32 35 73
92 86 80 86 80 89 90 93 44 31 11 52 45 79 87 98 141 150 150 126 255 215 102 122 100 90 88 85 89 75 51 63 57 66 58 66 60 45 47 32 33 34 38
120 124 119 104 117 118 91 102 126 27 32 16 13 355 19 178 220 185 160 123 149 114 103 83 93 101 104 92 89 74 75 56 69 69 59 48 51 45 47 32 32 27 24
101 130 136 171 160 160 181 200 159 166 181 294 338 318 356 157 254 254 262 142 99 78 119 119 114 109 100 98 90 93 74 63 63 58 59 49 42 43 36 35 23 19 22
90 108 141 150 185 176 172 165 163 154 180 162 354 321 33 176 122 140 81 60 107 95 105 110 105 121 115 109 101 89 95 85 73 67 60 52 40 56 47 39 22 33 37
110 132 127 99 83 115 179 177 167 171 172 177 196 205 152 27 33 48 83 99 90 98 116 97 101 121 113 111 107 101 87 81 90 70 43 35 37 44 39 30 25 23 31
159 156 134 102 96 113 156 200 202 184 194 193 213 195 171 137 148 140 127 123 132 136 124 122 121 123 120 122 119 110 108 96 75 79 72 31 22 37 26 31 22 28 12
199 219 193 195 184 189 179 175 195 201 202 194 181 137 159 133 140 138 129 132 132 122 122 127 130 136 143 136 135 126 121 110 101 98 91 86 72 62 34 24 19 16 354
198 203 221 233 220 237 220 161 181 191 201 203 164 158 177 168 158 155 149 149 138 132 133 131 136 126 130 130 139 135 137 141 141 147 138 99 24 35 22 12 357 318 302
204 207 213 233 264 247 237 223 202 211 207 197 182 176 181 174 161 159 152 147 143 151 154 147 147 146 146 137 126 120 130 142 150 143 113 129 302 322 168 249 257 280 281
211 210 208 223 213 231 241 244 220 213 208 203 186 171 178 162 152 160 160 157 157 161 165 161 158 162 158 154 156 156 166 164 163 164 142 250 276 297 289 281 288 290 296
232 221 217 207 215 231 229 226 223 205 205 206 192 176 174 176 169 167 168 165 169 169 168 172 171 169 168 170 172 175 178 192 184 180 167 185 216 281 289 297 306 300 300